This demonstration page uses our WeatherBlox Daily Observations layout. Learn more.

Left ArrowRight Arrow

39.51506, -84.39828

Hourly Observations for October 8, 2020

Temp ( °F °C ) Dew Point ( °F °C ) Humidity (%) Winds ( mph kmh ) Pressure ( in mb ) Visibility ( mi km ) Precip ( " mm )
12:15 am 00:15 Clear 56 13.6 45 7.3 66 66 Calm 30.06 1018 10 16.0934 0 0
12:35 am 00:35 Clear 55 12.5 46 7.6 72 72 Calm 30.06 1018 10 16.0934 0 0
12:55 am 00:55 Clear 50 10.1 45 7.3 83 83 Calm 30.08 1019 10 16.0934 0 0
1:15 am 01:15 Clear 51 10.3 45 7.4 82 82 Calm 30.08 1019 10 16.0934 0 0
1:35 am 01:35 Clear 49 9.7 45 7 83 83 Calm 30.08 1019 10 16.0934 0 0
1:55 am 01:55 Clear 49 9.7 46 7.5 86 86 Calm 30.1 1019 10 16.0934 0 0
2:15 am 02:15 Clear 48 9 45 7 87 87 Calm 30.1 1019 10 16.0934 0 0
2:35 am 02:35 Clear 47 8.5 44 6.9 90 90 Calm 30.1 1019 10 16.0934 0 0
2:55 am 02:55 Clear 48 9.1 45 7.1 87 87 Calm 30.12 1020 10 16.0934 0 0
3:15 am 03:15 Clear 47 8.5 44 6.9 90 90 Calm 30.12 1020 10 16.0934 0 0
3:35 am 03:35 Clear 47 8.4 44 6.8 90 90 Calm 30.12 1020 10 16.0934 0 0
3:55 am 03:55 Clear 47 8.3 45 7 92 92 Calm 30.13 1020 10 16.0934 0 0
4:15 am 04:15 Clear 46 7.8 43 6.2 90 90 Calm 30.13 1020 10 16.0934 0 0
4:35 am 04:35 Clear 46 7.6 44 6.4 92 92 Calm 30.14 1020 10 16.0934 0 0
4:55 am 04:55 Clear 45 7.1 43 6 93 93 Calm 30.15 1021 10 16.0934 0 0
5:15 am 05:15 Clear 44 6.9 42 5.7 92 92 Calm 30.15 1021 10 16.0934 0 0
5:35 am 05:35 Clear 44 6.6 43 5.9 95 95 Calm 30.16 1021 10 16.0934 0 0
5:55 am 05:55 Clear 43 5.9 41 5.1 95 95 NE 3 6 30.16 1021 10 16.0934 0 0
6:15 am 06:15 Clear 44 6.9 43 6.3 96 96 Calm 30.17 1022 10 16.0934 0 0
6:35 am 06:35 Clear 42 5.7 42 5.4 98 98 Calm 30.17 1022 10 16.0934 0 0
6:55 am 06:55 Clear 42 5.8 42 5.4 97 97 Calm 30.17 1022 10 16.0934 0 0
7:15 am 07:15 Clear 43 5.9 42 5.6 98 98 Calm 30.17 1022 10 16.0934 0 0
7:35 am 07:35 Clear 42 5.7 42 5.5 99 99 Calm 30.18 1022 10 16.0934 0 0
7:55 am 07:55 Sunny 42 5.6 42 5.3 98 98 Calm 30.18 1022 10 16.0934 0 0
8:15 am 08:15 Sunny 42 5.3 41 5.1 99 99 Calm 30.19 1022 10 16.0934 0 0
8:35 am 08:35 Sunny 44 6.5 43 6.2 98 98 Calm 30.2 1023 10 16.0934 0 0
8:55 am 08:55 Sunny 46 8 45 7.2 95 95 Calm 30.19 1022 10 16.0934 0 0
9:15 am 09:15 Sunny 49 9.5 46 7.7 89 89 Calm 30.19 1022 10 16.0934 0 0
9:35 am 09:35 Sunny 52 10.9 46 7.7 81 81 Calm 30.2 1023 10 16.0934 0 0
9:55 am 09:55 Sunny 54 12.1 46 7.6 74 74 Calm 30.19 1022 10 16.0934 0 0
10:15 am 10:15 Sunny 57 14 45 7.4 65 65 Calm 30.19 1022 10 16.0934 0 0
10:35 am 10:35 Sunny 59 15 46 7.5 61 61 Calm 30.2 1023 10 16.0934 0 0
10:55 am 10:55 Sunny 61 16.3 46 7.5 56 56 Calm 30.19 1022 10 16.0934 0 0
11:15 am 11:15 Sunny 65 18.2 42 5.4 43 43 Calm 30.19 1022 10 16.0934 0 0
11:35 am 11:35 Sunny 66 18.8 43 5.9 43 43 Calm 30.19 1022 10 16.0934 0 0
11:55 am 11:55 Sunny 67 19.6 41 5.2 39 39 SW 3 6 30.19 1022 10 16.0934 0 0
12:15 pm 12:15 Sunny 69 20.3 42 5.4 38 38 Calm 30.18 1022 10 16.0934 0 0
12:35 pm 12:35 Sunny 70 21.2 40 4.2 33 33 SSW 3 6 30.17 1022 10 16.0934 0 0
12:55 pm 12:55 Sunny 71 21.5 39 4.1 32 32 Calm 30.17 1022 10 16.0934 0 0
1:15 pm 13:15 Sunny 71 21.7 41 4.9 34 34 S 5 7 30.17 1022 7 11.26538 0 0
1:55 pm 13:55 Sunny 72 22.3 41 5 33 33 Calm 30.15 1021 10 16.0934 0 0
2:15 pm 14:15 Sunny 73 22.5 40 4.6 31 31 WSW 3 6 30.15 1021 10 16.0934 0 0
2:35 pm 14:35 Sunny 73 22.5 40 4.6 31 31 Calm 30.14 1021 10 16.0934 0 0
2:55 pm 14:55 Sunny 73 22.8 40 4.5 30 30 Calm 30.14 1021 10 16.0934 0 0
3:15 pm 15:15 Sunny 74 23.3 40 4.7 30 30 Calm 30.13 1020 10 16.0934 0 0
3:35 pm 15:35 Sunny 74 23.1 40 4.4 30 30 Calm 30.12 1020 10 16.0934 0 0
3:55 pm 15:55 Sunny 74 23.5 40 4.7 30 30 Calm 30.12 1020 10 16.0934 0 0
4:15 pm 16:15 Sunny 74 23.5 41 4.9 30 30 Calm 30.11 1020 10 16.0934 0 0
4:35 pm 16:35 Sunny 74 23.6 41 5.1 30 30 WSW 3 6 30.11 1020 10 16.0934 0 0
4:55 pm 16:55 Sunny 74 23.6 40 4.7 29 29 Calm 30.11 1020 10 16.0934 0 0
5:15 pm 17:15 Sunny 76 24.2 41 5 29 29 S 5 7 30.1 1019 10 16.0934 0 0
5:35 pm 17:35 Sunny 74 23.6 40 4.3 29 29 Calm 30.11 1020 10 16.0934 0 0
5:55 pm 17:55 Sunny 74 23.2 40 4.5 30 30 Calm 30.11 1020 10 16.0934 0 0
6:15 pm 18:15 Sunny 73 22.7 43 6.3 35 35 Calm 30.11 1020 10 16.0934 0 0
6:35 pm 18:35 Sunny 71 21.9 42 5.3 34 34 SSW 5 7 30.11 1020 10 16.0934 0 0
6:55 pm 18:55 Sunny 69 20.8 42 5.4 37 37 SW 3 6 30.12 1020 10 16.0934 0 0
7:15 pm 19:15 Clear 61 16.3 49 9.6 65 65 Calm 30.13 1020 10 16.0934 0 0
7:35 pm 19:35 Clear 59 15.1 48 9 67 67 Calm 30.14 1021 10 16.0934 0 0
7:55 pm 19:55 Clear 58 14.6 49 9.3 71 71 Calm 30.14 1021 10 16.0934 0 0
8:15 pm 20:15 Clear 56 13.3 49 9.3 77 77 Calm 30.14 1021 10 16.0934 0 0
8:35 pm 20:35 Clear 54 12.2 48 8.9 80 80 Calm 30.14 1021 10 16.0934 0 0
8:55 pm 20:55 Clear 56 13.1 47 8.4 73 73 NE 3 6 30.15 1021 10 16.0934 0 0
9:15 pm 21:15 Clear 55 12.7 47 8.4 75 75 Calm 30.15 1021 10 16.0934 0 0
9:35 pm 21:35 Clear 53 11.7 48 8.7 82 82 Calm 30.15 1021 10 16.0934 0 0
9:55 pm 21:55 Clear 54 12.1 47 8.4 78 78 Calm 30.16 1021 10 16.0934 0 0
10:15 pm 22:15 Clear 52 11.2 46 7.8 80 80 Calm 30.17 1022 10 16.0934 0 0
10:35 pm 22:35 Clear 51 10.6 46 7.7 82 82 Calm 30.17 1022 10 16.0934 0 0
10:55 pm 22:55 Clear 51 10.5 47 8.3 86 86 Calm 30.17 1022 10 16.0934 0 0
11:15 pm 23:15 Clear 51 10.6 47 8.1 85 85 Calm 30.18 1022 10 16.0934 0 0
11:35 pm 23:35 Clear 49 9.6 46 7.5 87 87 Calm 30.18 1022 10 16.0934 0 0
11:55 pm 23:55 Clear 48 8.7 46 7.6 93 93 Calm 30.18 1022 10 16.0934 0 0

Powered by AerisWeather